Tracking 28794 objects as of 19-Apr-2024
HD Live streaming from Space Station
objects crossing your sky now

SL-14 DEB

Track SL-14 DEB now!
10-day predictions


NORAD ID: 27628
Int'l Code: 1987-068CK
Perigee: 904.2 km
Apogee: 943.9 km
Inclination: 82.5 °
Period: 103.3 minutes
Semi major axis: 7295 km
RCS: 0.0118 m2 (small)
Launch date: August 18, 1987
Source: Commonwealth of Independent States (former USSR) (CIS)
Launch site: PLESETSK MISSILE AND SPACE COMPLEX (PKMTR)

Note: This is SATELLITE DEBRIS
Your satellite tracking list
Your tracking list is empty




NASA's NSSDC Master Catalog

Two Line Element Set (TLE):
1 27628U 87068CK  24109.63717826  .00000774  00000-0  57874-3 0  9992
2 27628  82.5149  68.9231 0027204 118.4104 241.9808 13.93350511246082
Source of the keplerian elements: AFSPC